Terminal Aerodrome Forecast
Issued by NWS Dodge City, KS

Home | Current Version | Previous Version | Graphics & Text | Print | Product List | Glossary Off
Versions: 1 2 3 4 5 6 7 8 9 10 11 12 13 14 15 16 17 18 19 20 21 22 23 24 25 26 27 28 29 30 31 32 33 34 35 36 37 38 39 40 41 42 43 44

000
FTUS43 KDDC 311722
TAFDDC
TAF
KDDC 311722Z 3118/0118 18016G24KT P6SM OVC007
     FM312300 17010KT P6SM OVC015
     FM010500 33013KT 3SM BR OVC005
      TEMPO 0105/0108 1SM -RA BR OVC003
     FM011200 34025KT P6SM BKN015=

USA.gov is the U.S. government's official web portal to all federal, state and local government web resources and services.